| time (UTC) | temp F | wind direction | speed MPH | gust MPH | rain 1hr in | rain 24hr in | rain mn in | humidity % | barometer mb |
| 20260505004109 | 70 | 335 | 1.0 | 4.0 | 0.00 | 0.00 | 0.00 | 62 | 1010.7 |
| 20260505003609 | 70 | 99 | 2.0 | 5.0 | 0.00 | 0.00 | 0.00 | 62 | 1010.7 |
| 20260505003021 | 70 | 78 | 1.0 | 5.0 | 0.00 | 0.00 | 0.00 | 60 | 1009.1 |
| 20260505002608 | 70 | 133 | 1.0 | 4.0 | 0.00 | 0.00 | 0.00 | 60 | 1010.5 |
| 20260505002110 | 70 | 59 | 1.0 | 4.0 | 0.00 | 0.00 | 0.00 | 61 | 1010.3 |
| 20260505001520 | 70 | 53 | 1.0 | 4.0 | 0.00 | 0.00 | 0.00 | 59 | 1009.0 |
| 20260505001108 | 71 | 79 | 2.0 | 1.0 | 0.00 | 0.00 | 0.00 | 60 | 1010.4 |
| 20260505000033 | 71 | 40 | 1.0 | 4.0 | 0.00 | 0.00 | 0.00 | 59 | 1009.1 |
| 20260504235625 | 71 | 42 | 2.0 | 4.0 | 0.00 | 0.00 | 0.00 | 59 | 1010.5 |
| 20260504235125 | 71 | 344 | 2.0 | 5.0 | 0.00 | 0.00 | 0.00 | 58 | 1010.5 |
| 20260504234528 | 71 | 115 | 1.0 | 6.0 | 0.00 | 0.00 | 0.00 | 58 | 1009.0 |
| 20260504234122 | 72 | 94 | 2.0 | 6.0 | 0.00 | 0.00 | 0.00 | 57 | 1010.8 |
| 20260504233619 | 72 | 26 | 3.0 | 6.0 | 0.00 | 0.00 | 0.00 | 58 | 1010.4 |
| 20260504233120 | 72 | 332 | 2.0 | 6.0 | 0.00 | 0.00 | 0.00 | 58 | 1010.5 |
| 20260504233028 | 72 | 342 | 2.0 | 5.0 | 0.00 | 0.00 | 0.00 | 58 | 1009.1 |
| 20260504232115 | 72 | 53 | 2.0 | 6.0 | 0.00 | 0.00 | 0.00 | 57 | 1010.9 |
| 20260504231619 | 72 | 349 | 3.0 | 7.0 | 0.00 | 0.00 | 0.00 | 57 | 1011.0 |
| 20260504231525 | 71 | 23 | 2.0 | 7.0 | 0.00 | 0.00 | 0.00 | 58 | 1009.1 |
| 20260504231118 | 71 | 62 | 2.0 | 7.0 | 0.00 | 0.00 | 0.00 | 58 | 1011.0 |
| 20260504230613 | 71 | 13 | 3.0 | 6.0 | 0.00 | 0.00 | 0.00 | 58 | 1011.0 |
| 20260504230023 | 71 | 317 | 2.0 | 7.0 | 0.00 | 0.00 | 0.00 | 57 | 1009.3 |
| 20260504225418 | 72 | 355 | 3.0 | 7.0 | 0.00 | 0.00 | 0.00 | 58 | 1011.1 |
| 20260504224918 | 72 | 5 | 3.0 | 6.0 | 0.00 | 0.00 | 0.00 | 58 | 1010.7 |
| 20260504224520 | 72 | 331 | 3.0 | 6.0 | 0.00 | 0.00 | 0.00 | 56 | 1009.4 |
| 20260504224411 | 72 | 40 | 3.0 | 6.0 | 0.00 | 0.00 | 0.00 | 57 | 1010.9 |
| 20260504223909 | 72 | 355 | 3.0 | 5.0 | 0.00 | 0.00 | 0.00 | 60 | 1010.9 |
| 20260504223408 | 72 | 5 | 3.0 | 6.0 | 0.00 | 0.00 | 0.00 | 58 | 1011.2 |
| 20260504223026 | 71 | 355 | 3.0 | 6.0 | 0.00 | 0.00 | 0.00 | 57 | 1009.3 |
| 20260504222912 | 72 | 10 | 3.0 | 6.0 | 0.00 | 0.00 | 0.00 | 57 | 1011.2 |
| 20260504222408 | 72 | 346 | 3.0 | 6.0 | 0.00 | 0.00 | 0.00 | 58 | 1011.3 |
| 20260504221909 | 72 | 341 | 3.0 | 6.0 | 0.00 | 0.00 | 0.00 | 57 | 1011.3 |
| 20260504221528 | 72 | 5 | 3.0 | 6.0 | 0.00 | 0.00 | 0.00 | 58 | 1009.4 |
| 20260504221409 | 73 | 346 | 3.0 | 6.0 | 0.00 | 0.00 | 0.00 | 58 | 1011.2 |
| 20260504220909 | 73 | 25 | 3.0 | 6.0 | 0.00 | 0.00 | 0.00 | 59 | 1011.4 |
| 20260504220409 | 72 | 22 | 2.0 | 5.0 | 0.00 | 0.00 | 0.00 | 61 | 1011.4 |
| 20260504220012 | 72 | 351 | 2.0 | 5.0 | 0.00 | 0.00 | 0.00 | 61 | 1009.5 |
| 20260504215909 | 72 | 355 | 2.0 | 5.0 | 0.00 | 0.00 | 0.00 | 61 | 1011.4 |
| 20260504215409 | 72 | 24 | 2.0 | 5.0 | 0.00 | 0.00 | 0.00 | 60 | 1011.5 |
| 20260504214909 | 72 | 346 | 2.0 | 6.0 | 0.00 | 0.00 | 0.00 | 62 | 1011.4 |
| 20260504214504 | 71 | 15 | 2.0 | 6.0 | 0.00 | 0.00 | 0.00 | 62 | 1009.7 |
| 20260504214410 | 71 | 355 | 2.0 | 6.0 | 0.00 | 0.00 | 0.00 | 62 | 1011.4 |
| 20260504213852 | 72 | 350 | 1.0 | 5.0 | 0.00 | 0.00 | 0.00 | 61 | 1011.6 |
| 20260504213353 | 71 | 10 | 2.0 | 4.0 | 0.00 | 0.00 | 0.00 | 60 | 1011.5 |
| 20260504213005 | 70 | 355 | 2.0 | 5.0 | 0.00 | 0.00 | 0.00 | 59 | 1009.7 |
| 20260504212853 | 71 | 351 | 2.0 | 5.0 | 0.00 | 0.00 | 0.00 | 62 | 1011.5 |
| 20260504212352 | 71 | 338 | 2.0 | 5.0 | 0.00 | 0.00 | 0.00 | 63 | 1011.6 |
| 20260504211855 | 70 | 0 | 2.0 | 4.0 | 0.00 | 0.00 | 0.00 | 62 | 1011.7 |
| 20260504211520 | 70 | 39 | 0.0 | 6.0 | 0.00 | 0.00 | 0.00 | 62 | 1009.9 |
| 20260504211354 | 70 | 39 | 3.0 | 6.0 | 0.00 | 0.00 | 0.00 | 63 | 1011.7 |
| 20260504210855 | 70 | 355 | 4.0 | 6.0 | 0.00 | 0.00 | 0.00 | 60 | 1011.7 |
| 20260504210022 | 71 | 355 | 3.0 | 5.0 | 0.00 | 0.00 | 0.00 | 62 | 1009.8 |
| 20260504205353 | 72 | 5 | 3.0 | 6.0 | 0.00 | 0.00 | 0.00 | 61 | 1011.5 |
| 20260504204855 | 71 | 59 | 3.0 | 6.0 | 0.00 | 0.00 | 0.00 | 61 | 1011.5 |
| 20260504204516 | 70 | 355 | 2.0 | 5.0 | 0.00 | 0.00 | 0.00 | 59 | 1009.7 |
| 20260504204354 | 71 | 0 | 3.0 | 5.0 | 0.00 | 0.00 | 0.00 | 62 | 1011.5 |
| 20260504203854 | 71 | 5 | 2.0 | 5.0 | 0.00 | 0.00 | 0.00 | 61 | 1011.5 |
| 20260504203355 | 71 | 26 | 3.0 | 5.0 | 0.00 | 0.00 | 0.00 | 60 | 1011.5 |
| 20260504203009 | 71 | 349 | 2.0 | 5.0 | 0.00 | 0.00 | 0.00 | 60 | 1009.7 |
| 20260504202855 | 71 | 343 | 2.0 | 5.0 | 0.00 | 0.00 | 0.00 | 58 | 1011.5 |
| 20260504202355 | 72 | 332 | 2.0 | 4.0 | 0.00 | 0.00 | 0.00 | 60 | 1011.6 |
| 20260504201853 | 71 | 32 | 3.0 | 6.0 | 0.00 | 0.00 | 0.00 | 59 | 1011.7 |
| 20260504201508 | 71 | 338 | 2.0 | 7.0 | 0.00 | 0.00 | 0.00 | 59 | 1009.8 |
| 20260504201353 | 71 | 27 | 4.0 | 7.0 | 0.00 | 0.00 | 0.00 | 59 | 1011.6 |
| 20260504200853 | 72 | 344 | 3.0 | 7.0 | 0.00 | 0.00 | 0.00 | 58 | 1011.6 |
| 20260504200352 | 73 | 0 | 2.0 | 5.0 | 0.00 | 0.00 | 0.00 | 58 | 1011.8 |
| 20260504200007 | 71 | 48 | 2.0 | 5.0 | 0.00 | 0.00 | 0.00 | 60 | 1009.8 |
| 20260504195352 | 71 | 5 | 4.0 | 6.0 | 0.00 | 0.00 | 0.00 | 59 | 1011.6 |
| 20260504194853 | 71 | 336 | 4.0 | 6.0 | 0.00 | 0.00 | 0.00 | 57 | 1011.6 |
| 20260504194525 | 71 | 342 | 4.0 | 6.0 | 0.00 | 0.00 | 0.00 | 57 | 1009.7 |
| 20260504194353 | 72 | 348 | 3.0 | 6.0 | 0.00 | 0.00 | 0.00 | 58 | 1011.8 |
| 20260504193854 | 72 | 339 | 3.0 | 5.0 | 0.00 | 0.00 | 0.00 | 59 | 1011.8 |
| 20260504193353 | 72 | 349 | 3.0 | 8.0 | 0.00 | 0.00 | 0.00 | 56 | 1011.8 |
| 20260504193019 | 72 | 5 | 3.0 | 8.0 | 0.00 | 0.00 | 0.00 | 54 | 1009.8 |
| 20260504192853 | 73 | 346 | 2.0 | 8.0 | 0.00 | 0.00 | 0.00 | 56 | 1011.8 |
| 20260504192354 | 73 | 355 | 3.0 | 5.0 | 0.00 | 0.00 | 0.00 | 58 | 1011.5 |
| 20260504191515 | 72 | 337 | 2.0 | 5.0 | 0.00 | 0.00 | 0.00 | 56 | 1009.8 |
| 20260504191258 | 72 | 341 | 2.0 | 5.0 | 0.00 | 0.00 | 0.00 | 56 | 1011.8 |
| 20260504190755 | 72 | 54 | 3.0 | 8.0 | 0.00 | 0.00 | 0.00 | 57 | 1011.3 |
| 20260504190253 | 72 | 349 | 3.0 | 8.0 | 0.00 | 0.00 | 0.00 | 57 | 1011.3 |
| 20260504190012 | 72 | 346 | 4.0 | 8.0 | 0.00 | 0.00 | 0.00 | 56 | 1009.7 |
| 20260504185751 | 72 | 29 | 2.0 | 5.0 | 0.00 | 0.00 | 0.00 | 59 | 1011.7 |
| 20260504185254 | 72 | 49 | 2.0 | 3.0 | 0.00 | 0.00 | 0.00 | 56 | 1011.3 |
| 20260504184511 | 70 | 75 | 2.0 | 4.0 | 0.00 | 0.00 | 0.00 | 59 | 1009.7 |
| 20260504184250 | 70 | 15 | 2.0 | 1.0 | 0.00 | 0.00 | 0.00 | 59 | 1011.4 |
| 20260504183027 | 68 | 0 | 3.0 | 5.0 | 0.00 | 0.00 | 0.00 | 61 | 1012.3 |
| 20260504183024 | 67 | 352 | 2.0 | 5.0 | 0.00 | 0.00 | 0.00 | 60 | 1010.0 |
| 20260504182527 | 67 | 0 | 3.0 | 3.0 | 0.00 | 0.00 | 0.00 | 60 | 1011.7 |
| 20260504181522 | 67 | 360 | 3.0 | 8.0 | 0.00 | 0.00 | 0.00 | 60 | 1010.1 |
| 20260504181004 | 67 | 15 | 4.0 | 8.0 | 0.00 | 0.00 | 0.00 | 61 | 1011.7 |
| 20260504180503 | 68 | 36 | 3.0 | 7.0 | 0.00 | 0.00 | 0.00 | 60 | 1011.7 |
| 20260504180021 | 68 | 345 | 2.0 | 6.0 | 0.00 | 0.00 | 0.00 | 59 | 1010.0 |
| 20260504180002 | 68 | 5 | 3.0 | 6.0 | 0.00 | 0.00 | 0.00 | 60 | 1011.7 |
| 20260504175500 | 68 | 355 | 3.0 | 6.0 | 0.00 | 0.00 | 0.00 | 59 | 1011.5 |
| 20260504175001 | 69 | 5 | 2.0 | 6.0 | 0.00 | 0.00 | 0.00 | 59 | 1011.4 |
| 20260504174519 | 69 | 36 | 0.0 | 5.0 | 0.00 | 0.00 | 0.00 | 60 | 1009.9 |
| 20260504174500 | 69 | 36 | 2.0 | 5.0 | 0.00 | 0.00 | 0.00 | 60 | 1011.5 |
| 20260504173958 | 69 | 309 | 2.0 | 4.0 | 0.00 | 0.00 | 0.00 | 59 | 1011.3 |
| 20260504173459 | 69 | 34 | 2.0 | 6.0 | 0.00 | 0.00 | 0.00 | 59 | 1011.3 |
| 20260504173013 | 69 | 348 | 3.0 | 6.0 | 0.00 | 0.00 | 0.00 | 59 | 1009.9 |
| 20260504172956 | 69 | 28 | 2.0 | 6.0 | 0.00 | 0.00 | 0.00 | 59 | 1011.5 |
| 20260504171943 | 69 | 14 | 2.0 | 4.0 | 0.00 | 0.00 | 0.00 | 59 | 1011.6 |
| 20260504171512 | 69 | 32 | 1.0 | 4.0 | 0.00 | 0.00 | 0.00 | 58 | 1010.0 |
| 20260504171443 | 69 | 31 | 2.0 | 4.0 | 0.00 | 0.00 | 0.00 | 58 | 1011.9 |
| 20260504170941 | 69 | 65 | 2.0 | 4.0 | 0.00 | 0.00 | 0.00 | 58 | 1011.5 |
| 20260504170435 | 69 | 35 | 2.0 | 6.0 | 0.00 | 0.00 | 0.00 | 58 | 1011.6 |
| 20260504160404 | 69 | 20 | 2.0 | 6.0 | 0.00 | 0.00 | 0.00 | 54 | 1011.4 |
| 20260504150904 | 69 | 291 | 2.0 | 6.0 | 0.00 | 0.00 | 0.00 | 51 | 1011.4 |
| 20260504150405 | 69 | 330 | 3.0 | 8.0 | 0.00 | 0.00 | 0.00 | 54 | 1011.2 |
| 20260504140903 | 61 | 315 | 0.0 | 2.0 | 0.00 | 0.00 | 0.00 | 69 | 1010.8 |
| 20260504140403 | 60 | 313 | 0.0 | 2.0 | 0.00 | 0.00 | 0.00 | 70 | 1010.7 |
| 20260504110332 | 55 | 185 | 1.0 | 4.0 | 0.00 | 0.00 | 0.00 | 69 | 1009.6 |
| 20260504100420 | 56 | 206 | 0.0 | 0.0 | 0.00 | 0.00 | 0.00 | 67 | 1010.0 |
| 20260504081522 | 58 | 188 | 2.0 | 5.0 | 0.00 | 0.00 | 0.00 | 64 | 1008.4 |
| 20260504080119 | 58 | 196 | 3.0 | 4.0 | 0.00 | 0.00 | 0.00 | 65 | 1009.9 |
| 20260504060108 | 59 | 184 | 2.0 | 4.0 | 0.00 | 0.00 | 0.00 | 63 | 1010.3 |
| 20260504050605 | 59 | 184 | 2.0 | 3.0 | 0.00 | 0.00 | 0.00 | 66 | 1010.4 |
| 20260504050104 | 59 | 183 | 2.0 | 3.0 | 0.00 | 0.00 | 0.00 | 64 | 1010.6 |
| 20260504050010 | 59 | 183 | 1.0 | 3.0 | 0.00 | 0.00 | 0.00 | 64 | 1009.2 |
| 20260504045602 | 59 | 184 | 2.0 | 3.0 | 0.00 | 0.00 | 0.00 | 65 | 1010.7 |
| 20260504045102 | 60 | 182 | 2.0 | 3.0 | 0.00 | 0.00 | 0.00 | 65 | 1010.6 |
| 20260504044602 | 60 | 182 | 1.0 | 3.0 | 0.00 | 0.00 | 0.00 | 65 | 1010.5 |
| 20260504044506 | 59 | 182 | 2.0 | 3.0 | 0.00 | 0.00 | 0.00 | 64 | 1009.1 |
| 20260504044102 | 60 | 182 | 2.0 | 2.0 | 0.00 | 0.00 | 0.00 | 64 | 1010.4 |
| 20260504043604 | 60 | 182 | 2.0 | 3.0 | 0.00 | 0.00 | 0.00 | 63 | 1010.4 |
| 20260504043103 | 60 | 182 | 2.0 | 4.0 | 0.00 | 0.00 | 0.00 | 63 | 1010.4 |
| 20260504043008 | 60 | 182 | 1.0 | 4.0 | 0.00 | 0.00 | 0.00 | 62 | 1008.9 |
| 20260504042603 | 60 | 182 | 3.0 | 4.0 | 0.00 | 0.00 | 0.00 | 62 | 1010.3 |
| 20260504042102 | 60 | 178 | 2.0 | 4.0 | 0.00 | 0.00 | 0.00 | 63 | 1010.5 |
| 20260504041601 | 61 | 194 | 2.0 | 4.0 | 0.00 | 0.00 | 0.00 | 63 | 1010.3 |
| 20260504041510 | 60 | 194 | 2.0 | 4.0 | 0.00 | 0.00 | 0.00 | 62 | 1009.0 |
| 20260504041100 | 61 | 192 | 2.0 | 4.0 | 0.00 | 0.00 | 0.00 | 62 | 1010.4 |
| 20260504040600 | 61 | 184 | 2.0 | 4.0 | 0.00 | 0.00 | 0.00 | 61 | 1010.4 |
| 20260504040103 | 62 | 180 | 2.0 | 3.0 | 0.00 | 0.00 | 0.00 | 60 | 1010.4 |
| 20260504040006 | 61 | 180 | 1.0 | 3.0 | 0.00 | 0.00 | 0.00 | 58 | 1009.0 |
| 20260504035601 | 62 | 180 | 2.0 | 3.0 | 0.00 | 0.00 | 0.00 | 59 | 1010.2 |
| 20260504034505 | 62 | 180 | 1.0 | 3.0 | 0.00 | 0.00 | 0.00 | 59 | 1008.9 |
| 20260504033544 | 63 | 180 | 2.0 | 3.0 | 0.00 | 0.00 | 0.00 | 58 | 1010.2 |
| 20260504033009 | 63 | 180 | 2.0 | 3.0 | 0.00 | 0.00 | 0.00 | 56 | 1008.9 |
| 20260504032042 | 65 | 180 | 2.0 | 3.0 | 0.00 | 0.00 | 0.00 | 57 | 1010.3 |
| 20260504031542 | 65 | 178 | 2.0 | 3.0 | 0.00 | 0.00 | 0.00 | 56 | 1010.2 |
| 20260504031507 | 65 | 179 | 2.0 | 3.0 | 0.00 | 0.00 | 0.00 | 56 | 1008.9 |
| 20260504031044 | 66 | 178 | 2.0 | 3.0 | 0.00 | 0.00 | 0.00 | 56 | 1010.2 |
| 20260504030541 | 66 | 178 | 2.0 | 3.0 | 0.00 | 0.00 | 0.00 | 55 | 1010.2 |
| 20260504030035 | 67 | 178 | 2.0 | 3.0 | 0.00 | 0.00 | 0.00 | 54 | 1010.3 |
| 20260504030010 | 67 | 178 | 1.0 | 3.0 | 0.00 | 0.00 | 0.00 | 53 | 1009.0 |
| 20260504025529 | 67 | 178 | 2.0 | 3.0 | 0.00 | 0.00 | 0.00 | 55 | 1010.3 |
| 20260504024508 | 68 | 178 | 1.0 | 3.0 | 0.00 | 0.00 | 0.00 | 56 | 1009.2 |
| 20260504024019 | 69 | 178 | 0.0 | 0.0 | 0.00 | 0.00 | 0.00 | 56 | 1010.6 |
| 20260504023519 | 70 | 178 | 0.0 | 0.0 | 0.00 | 0.00 | 0.00 | 55 | 1010.5 |
| 20260504023007 | 70 | 178 | 0.0 | 0.0 | 0.00 | 0.00 | 0.00 | 52 | 1009.3 |
| 20260504023004 | 71 | 178 | 0.0 | 0.0 | 0.00 | 0.00 | 0.00 | 53 | 1010.9 |
| 20260504022504 | 72 | 178 | 0.0 | 0.0 | 0.00 | 0.00 | 0.00 | 54 | 1010.8 |
| 20260504022006 | 72 | 178 | 0.0 | 0.0 | 0.00 | 0.00 | 0.00 | 56 | 1010.5 |
| 20260504021509 | 72 | 178 | 0.0 | 0.0 | 0.00 | 0.00 | 0.00 | 54 | 1009.3 |
| 20260504021505 | 73 | 178 | 0.0 | 0.0 | 0.00 | 0.00 | 0.00 | 54 | 1010.6 |
| 20260504021005 | 73 | 178 | 0.0 | 0.0 | 0.00 | 0.00 | 0.00 | 53 | 1010.5 |
| 20260504020505 | 74 | 178 | 1.0 | 0.0 | 0.00 | 0.00 | 0.00 | 50 | 1010.6 |
| 20260504020008 | 73 | 26 | 1.0 | 2.0 | 0.00 | 0.00 | 0.00 | 49 | 1009.4 |
| 20260504015055 | 74 | 0 | 0.0 | 1.0 | 0.00 | 0.00 | 0.00 | 50 | 1011.1 |
| 20260504014555 | 74 | 0 | 0.0 | 2.0 | 0.00 | 0.00 | 0.00 | 49 | 1011.2 |
| 20260504014510 | 74 | 360 | 0.0 | 2.0 | 0.00 | 0.00 | 0.00 | 47 | 1009.5 |
| 20260504014055 | 74 | 0 | 0.0 | 2.0 | 0.00 | 0.00 | 0.00 | 48 | 1011.2 |
| 20260504013555 | 74 | 0 | 0.0 | 2.0 | 0.00 | 0.00 | 0.00 | 45 | 1011.4 |
| 20260504013055 | 74 | 0 | 1.0 | 3.0 | 0.00 | 0.00 | 0.00 | 46 | 1011.4 |
| 20260504013014 | 74 | 360 | 0.0 | 3.0 | 0.00 | 0.00 | 0.00 | 46 | 1009.7 |
| 20260504012556 | 74 | 0 | 1.0 | 3.0 | 0.00 | 0.00 | 0.00 | 41 | 1011.5 |
| 20260504012055 | 74 | 10 | 1.0 | 3.0 | 0.00 | 0.00 | 0.00 | 44 | 1011.6 |
| 20260504011511 | 74 | 11 | 0.0 | 2.0 | 0.00 | 0.00 | 0.00 | 43 | 1009.8 |
| 20260504011055 | 74 | 11 | 1.0 | 4.0 | 0.00 | 0.00 | 0.00 | 44 | 1011.8 |
| 20260504010556 | 74 | 11 | 2.0 | 4.0 | 0.00 | 0.00 | 0.00 | 46 | 1011.8 |
| 20260504010055 | 74 | 9 | 2.0 | 3.0 | 0.00 | 0.00 | 0.00 | 45 | 1011.9 |
| 20260504010009 | 74 | 9 | 1.0 | 3.0 | 0.00 | 0.00 | 0.00 | 45 | 1010.0 |
| 20260504005558 | 75 | 42 | 1.0 | 3.0 | 0.00 | 0.00 | 0.00 | 46 | 1011.9 |
| 20260504005057 | 75 | 27 | 1.0 | 3.0 | 0.00 | 0.00 | 0.00 | 46 | 1011.9 |
| 20260504004555 | 74 | 28 | 1.0 | 3.0 | 0.00 | 0.00 | 0.00 | 47 | 1011.6 |
| 20260504004515 | 74 | 28 | 0.0 | 3.0 | 0.00 | 0.00 | 0.00 | 46 | 1010.0 |